Temp
7 6 6 6 5 5 6 6 5 8 6 9 7 6 7 9 9 9 9 9 9 9 8 8 8 7 7 7 6 6 6 5 5 5 5 5 5 5 5 5 5 5 5 5
4 7 7 7 6 5 6 6 6 6 7 8 9 9 8 9 9 9 9 9 9 9 8 8 7 7 7 6 6 5 5 5 5 4 4 4 3 3 3 4 4 4 4 4
3 6 6 5 5 5 6 5 7 7 9 9 8 8 8 9 9 10 10 10 9 9 9 8 7 7 6 6 5 5 4 4 4 4 4 3 2 3 3 3 3 3 3 3
3 5 5 7 7 6 6 6 5 7 8 8 8 10 10 11 11 11 11 11 10 9 9 8 7 6 5 5 5 4 4 4 4 3 3 3 2 2 2 2 2 2 2 2
4 3 5 7 7 6 6 6 6 7 7 8 8 9 9 10 11 11 11 11 10 9 8 7 6 5 5 4 4 4 3 3 3 3 2 2 2 2 2 2 2 2 2 1
2 3 5 8 8 8 7 6 7 6 6 7 7 6 6 10 11 11 11 10 9 9 8 6 6 5 4 4 3 3 3 3 3 3 2 2 1 2 1 1 1 1 1 1
4 2 4 6 7 8 7 6 8 7 8 7 6 7 10 10 10 10 9 9 8 7 7 6 5 4 3 3 3 3 2 2 2 2 2 1 1 1 0 0 0 0 1 1
4 6 4 7 8 7 7 8 8 8 8 8 9 9 9 9 8 8 8 7 7 6 5 5 4 3 3 2 2 2 2 2 2 2 1 1 0 -0 0 -0 -0 0 0 0
5 5 7 8 8 9 9 9 9 9 8 8 8 8 8 8 7 7 7 6 5 5 4 4 3 2 2 2 2 2 1 1 1 1 0 0 -0 -0 -0 -0 -0 -0 0 0
7 7 6 8 8 8 9 9 9 9 9 9 8 8 8 7 7 7 6 6 5 4 4 3 2 2 2 1 1 1 1 1 0 0 -0 -1 -1 -1 -0 0 0 0 0 0
5 6 7 8 9 9 9 8 8 8 8 8 8 8 8 8 7 6 5 5 4 4 4 3 2 1 1 1 1 1 0 0 0 0 -0 -1 -0 0 0 -0 -0 -0 -0 0
5 7 7 8 8 8 8 8 7 7 7 7 7 7 7 7 6 6 6 5 5 4 4 2 2 1 1 1 0 0 0 0 0 0 -0 -0 -0 -0 -0 -0 0 0 0 -0
7 8 8 8 7 7 7 7 7 7 7 7 6 6 6 6 6 6 6 5 5 4 3 2 2 1 1 0 0 -0 -0 0 0 -0 -0 -0 -0 -0 -0 0 0 0 -0 0
8 7 7 7 7 7 7 6 6 6 6 6 6 6 6 5 5 5 5 5 4 4 4 3 2 2 1 1 0 -0 -0 -1 -0 0 -0 -0 -0 -0 0 0 -0 -0 -0 -0
7 7 7 7 7 6 6 5 5 5 5 5 4 4 4 4 4 4 4 4 4 4 4 3 3 2 2 1 1 -0 -0 -1 -1 -1 -0 -0 -0 -0 -0 -1 -0 -0 -0 0
6 6 6 6 5 5 4 4 4 4 4 4 4 3 3 3 3 4 4 3 4 4 4 4 3 3 2 2 1 -0 -1 -1 -1 -1 -0 0 0 -0 -0 -0 -0 -0 -0 -0
5 4 4 4 4 4 3 3 2 2 2 2 2 2 2 2 3 3 3 3 3 3 3 3 3 2 2 2 2 1 -1 -1 -1 -1 -1 -0 -0 0 0 0 -0 -0 -0 -1
3 4 3 3 2 2 1 1 1 1 1 1 1 1 0 -1 1 1 2 2 3 3 3 3 2 2 2 2 2 1 1 -0 -1 -1 -1 -0 0 0 0 0 -0 -0 -0 -1
2 2 2 1 1 1 1 1 1 1 1 0 1 1 1 0 -0 1 1 2 3 3 4 3 2 2 2 2 1 1 1 0 -0 -0 -1 -1 -1 -0 -0 -0 -0 -0 -0 -1
0 1 1 1 0 0 -0 -0 -0 -0 -1 -1 -1 -1 -0 0 1 1 1 2 1 1 2 2 1 2 2 2 1 1 1 0 -0 -0 -0 -0 -0 -0 0 0 -0 -0 -1 -1
-2 -1 -1 -0 -0 -0 0 -0 -0 -1 -1 -1 -2 -2 -2 -1 -1 -1 -0 0 0 1 1 1 0 1 1 1 0 0 0 0 -0 -0 -0 -0 -1 -1 -1 -0 -0 -1 -1 -1
-1 -1 -1 -1 -0 -0 -1 -1 -1 -1 -2 -2 -2 -2 -2 -2 -2 -1 -2 -1 -1 -1 -0 -0 -0 -0 0 0 0 0 0 -0 -0 -0 -0 -1 -1 -1 -1 -2 -3 -3 -1 -1
-1 -1 -1 -1 -1 -1 -1 -1 -1 -2 -2 -3 -3 -3 -3 -3 -2 -2 -2 -2 -2 -2 -2 -1 -1 -1 -1 -1 -0 -0 -0 -0 -1 -1 -1 -1 -1 -1 -1 -1 -1 -2 -3 -2
-1 -1 -1 -1 -1 -1 -1 -2 -2 -2 -3 -3 -3 -3 -3 -2 -3 -3 -3 -3 -3 -3 -2 -2 -2 -2 -2 -2 -2 -1 -1 -1 -1 -2 -2 -2 -2 -2 -2 -2 -2 -2 -2 -2
-1 -1 -1 -1 -1 -2 -2 -2 -2 -3 -3 -3 -3 -3 -4 -4 -3 -3 -3 -3 -3 -3 -3 -3 -3 -3 -3 -3 -3 -3 -2 -2 -2 -3 -3 -3 -3 -3 -3 -3 -2 -2 -3 -3
-2 -2 -2 -2 -2 -2 -2 -3 -3 -3 -3 -3 -3 -3 -4 -4 -4 -4 -4 -4 -4 -4 -4 -3 -3 -3 -3 -3 -3 -3 -3 -3 -4 -4 -4 -4 -4 -4 -4 -3 -3 -3 -3 -3
-2 -2 -3 -2 -2 -2 -3 -3 -3 -3 -4 -3 -3 -4 -4 -4 -4 -4 -4 -4 -4 -4 -4 -4 -4 -4 -4 -4 -4 -4 -4 -4 -4 -4 -4 -4 -4 -4 -4 -3 -3 -3 -3 -3
Height
1458 1458 1461 1463 1467 1470 1472 1471 1478 1464 1468 1453 1452 1451 1451 1454 1459 1463 1466 1468 1469 1472 1474 1477 1480 1481 1482 1484 1485 1486 1485 1486 1487 1486 1484 1486 1487 1487 1487 1488 1488 1489 1489 1489
1466 1456 1457 1459 1462 1465 1466 1467 1468 1465 1461 1449 1447 1450 1453 1455 1458 1461 1463 1465 1468 1470 1473 1475 1477 1479 1480 1481 1482 1484 1485 1484 1483 1483 1484 1484 1484 1485 1486 1485 1486 1486 1486 1486
1475 1460 1461 1468 1456 1459 1456 1457 1457 1461 1448 1448 1449 1449 1450 1453 1455 1457 1460 1463 1465 1468 1470 1473 1475 1476 1477 1479 1480 1481 1482 1482 1481 1481 1482 1482 1482 1483 1483 1484 1484 1485 1485 1486
1473 1465 1473 1448 1445 1446 1448 1449 1451 1448 1447 1446 1445 1446 1448 1450 1452 1455 1458 1461 1464 1466 1468 1470 1472 1474 1474 1477 1478 1478 1479 1479 1479 1479 1479 1480 1480 1481 1481 1482 1483 1485 1485 1486
1469 1472 1458 1441 1443 1446 1448 1445 1442 1444 1444 1444 1444 1445 1447 1449 1452 1454 1456 1459 1461 1463 1465 1468 1469 1471 1472 1473 1474 1475 1476 1476 1476 1477 1477 1478 1478 1479 1480 1482 1483 1484 1486 1487
1474 1472 1461 1444 1441 1440 1442 1450 1437 1437 1440 1443 1445 1450 1447 1447 1449 1451 1453 1455 1457 1460 1462 1465 1466 1468 1469 1470 1471 1472 1473 1473 1474 1474 1475 1476 1477 1478 1480 1482 1484 1485 1487 1488
1466 1474 1457 1443 1440 1441 1447 1451 1436 1436 1437 1440 1444 1444 1444 1446 1447 1449 1451 1453 1455 1457 1459 1461 1463 1465 1466 1467 1468 1470 1470 1470 1471 1472 1473 1474 1476 1478 1481 1483 1485 1486 1488 1488
1462 1458 1467 1440 1442 1445 1441 1438 1437 1436 1437 1439 1442 1443 1444 1445 1446 1448 1449 1451 1453 1454 1456 1458 1460 1461 1462 1464 1466 1467 1467 1468 1469 1470 1471 1474 1476 1478 1481 1483 1485 1487 1487 1488
1453 1453 1440 1439 1439 1438 1438 1438 1438 1438 1440 1441 1442 1443 1444 1445 1446 1446 1448 1450 1451 1453 1454 1455 1456 1458 1459 1461 1462 1464 1465 1466 1467 1468 1471 1473 1476 1479 1481 1483 1485 1487 1486 1487
1443 1439 1438 1438 1438 1439 1439 1439 1440 1440 1440 1442 1443 1444 1445 1445 1445 1446 1447 1448 1450 1451 1451 1452 1453 1455 1456 1458 1460 1461 1462 1463 1465 1467 1470 1473 1475 1478 1480 1482 1484 1485 1485 1486
1443 1438 1437 1437 1437 1438 1439 1440 1441 1441 1442 1442 1443 1445 1445 1445 1445 1445 1446 1446 1447 1448 1449 1450 1451 1452 1453 1455 1456 1457 1459 1461 1463 1466 1469 1472 1475 1477 1480 1481 1482 1483 1484 1485
1441 1435 1436 1435 1436 1437 1439 1440 1441 1442 1442 1443 1443 1443 1443 1443 1443 1443 1443 1444 1444 1445 1446 1447 1447 1448 1449 1451 1452 1454 1456 1458 1461 1464 1467 1471 1473 1475 1477 1479 1480 1481 1482 1483
1435 1434 1435 1435 1435 1437 1439 1440 1441 1442 1442 1442 1442 1442 1441 1441 1441 1440 1440 1440 1441 1442 1444 1444 1444 1444 1445 1445 1447 1450 1452 1456 1459 1462 1465 1468 1471 1473 1475 1476 1477 1479 1480 1481
1433 1434 1435 1435 1436 1437 1438 1439 1440 1441 1441 1441 1441 1440 1439 1439 1438 1438 1438 1439 1439 1440 1440 1441 1441 1442 1442 1442 1444 1447 1450 1454 1457 1460 1463 1466 1468 1470 1472 1473 1475 1477 1477 1478
1432 1433 1433 1434 1435 1436 1437 1438 1439 1440 1440 1440 1439 1439 1438 1437 1437 1437 1437 1437 1437 1437 1437 1438 1438 1439 1439 1440 1442 1444 1447 1450 1453 1457 1460 1463 1465 1467 1469 1470 1472 1473 1474 1474
1430 1431 1432 1433 1434 1436 1436 1437 1438 1438 1438 1438 1438 1437 1437 1435 1435 1434 1434 1434 1434 1433 1435 1435 1436 1437 1437 1438 1439 1442 1444 1448 1451 1454 1456 1458 1460 1462 1464 1466 1467 1468 1469 1470
1429 1431 1432 1433 1434 1435 1436 1436 1436 1436 1436 1435 1434 1434 1433 1432 1431 1431 1431 1431 1430 1431 1431 1431 1432 1433 1434 1435 1436 1438 1441 1444 1446 1449 1451 1453 1455 1457 1459 1461 1462 1463 1465 1466
1430 1430 1431 1432 1433 1434 1434 1434 1434 1433 1433 1431 1431 1430 1429 1428 1426 1426 1426 1426 1426 1426 1426 1427 1428 1429 1430 1431 1432 1433 1436 1439 1441 1443 1446 1448 1449 1451 1453 1455 1456 1457 1459 1460
1430 1430 1430 1431 1432 1432 1432 1432 1431 1430 1429 1428 1426 1425 1425 1424 1423 1422 1421 1421 1421 1421 1422 1423 1424 1424 1425 1426 1427 1428 1430 1432 1435 1437 1439 1442 1443 1444 1446 1448 1449 1451 1453 1454
1430 1431 1431 1431 1431 1430 1430 1429 1429 1428 1426 1424 1423 1421 1420 1419 1418 1417 1416 1416 1415 1415 1415 1416 1417 1418 1419 1420 1421 1422 1424 1426 1428 1429 1431 1433 1434 1436 1439 1441 1442 1444 1445 1446
1431 1432 1432 1432 1432 1431 1430 1428 1427 1426 1424 1423 1421 1418 1416 1415 1413 1412 1412 1411 1411 1410 1409 1410 1410 1411 1412 1412 1413 1414 1415 1417 1419 1420 1422 1423 1425 1427 1430 1432 1434 1436 1438 1439
1432 1432 1432 1432 1431 1430 1429 1427 1426 1424 1422 1421 1420 1418 1415 1413 1411 1409 1408 1407 1405 1404 1403 1403 1403 1404 1404 1405 1405 1406 1408 1409 1410 1412 1412 1414 1415 1417 1419 1422 1424 1427 1430 1431
1433 1432 1432 1431 1431 1429 1428 1426 1424 1423 1421 1420 1418 1415 1413 1411 1408 1406 1405 1404 1401 1399 1398 1397 1397 1396 1396 1397 1397 1398 1399 1400 1401 1402 1403 1404 1405 1407 1409 1411 1413 1416 1418 1422
1433 1432 1432 1431 1430 1428 1427 1425 1424 1422 1420 1418 1415 1413 1411 1408 1408 1405 1403 1401 1398 1396 1394 1392 1391 1390 1390 1390 1390 1391 1392 1392 1393 1393 1394 1395 1396 1398 1399 1401 1402 1405 1408 1410
1432 1432 1431 1430 1428 1427 1425 1424 1422 1420 1418 1416 1414 1411 1409 1407 1405 1403 1400 1398 1396 1393 1391 1388 1386 1385 1384 1384 1384 1384 1384 1384 1385 1385 1386 1386 1387 1388 1389 1391 1392 1395 1398 1401
1431 1430 1429 1428 1426 1425 1423 1421 1419 1417 1415 1413 1412 1409 1407 1405 1403 1401 1398 1396 1393 1390 1388 1385 1383 1381 1379 1378 1378 1377 1377 1377 1377 1377 1377 1378 1378 1379 1380 1381 1383 1386 1389 1393
1428 1427 1426 1426 1424 1422 1420 1418 1416 1415 1413 1410 1408 1407 1404 1402 1400 1398 1395 1393 1390 1388 1385 1382 1380 1378 1376 1374 1373 1372 1371 1371 1371 1371 1371 1371 1371 1371 1372 1374 1376 1379 1381 1385
Wind_Speed
3 4 4 4 8 15 14 13 8 4 6 8 7 8 15 24 24 23 22 20 20 18 16 15 14 12 10 9 8 8 8 8 8 8 8 9 9 10 10 10 10 11 10 9
3 1 2 2 6 12 17 12 9 6 7 6 7 11 13 22 25 26 25 23 20 18 17 16 14 12 12 10 9 9 9 8 7 7 8 9 9 9 8 8 7 7 6 6
3 1 1 5 10 11 8 6 12 10 11 3 3 7 18 22 26 28 26 23 22 20 18 17 15 14 12 11 11 10 9 8 8 8 9 8 8 8 8 8 7 7 7 8
2 1 1 5 2 7 12 6 9 4 5 5 8 17 22 24 25 24 23 22 21 19 18 17 17 16 15 13 12 11 10 9 9 9 8 8 8 8 8 8 8 10 11 11
3 3 5 2 2 4 6 7 11 12 7 3 3 11 8 16 16 16 21 19 19 18 17 17 18 16 15 14 13 12 11 9 9 9 9 9 9 10 10 11 12 13 13 12
1 2 4 2 2 5 4 4 2 10 8 6 6 4 3 12 12 11 14 16 16 17 18 18 17 16 15 14 14 13 12 9 9 9 9 10 11 12 13 13 13 13 13 11
2 1 6 5 3 5 2 4 2 8 14 12 4 4 4 7 11 13 13 13 14 15 16 15 16 16 16 15 14 12 12 10 10 9 9 11 13 14 15 14 13 12 10 8
2 2 6 3 1 4 4 1 2 3 8 13 9 4 4 5 6 7 8 11 12 13 14 15 15 15 15 15 13 13 12 11 11 11 12 15 16 17 16 14 12 10 8 5
6 5 4 6 3 5 3 3 3 5 4 5 7 5 5 5 7 8 9 10 11 12 13 14 15 15 16 15 15 14 13 12 13 13 15 17 18 17 16 14 11 8 6 4
1 2 4 5 5 2 2 1 2 3 6 4 2 2 2 4 7 9 11 12 12 13 14 14 15 16 16 16 15 15 15 15 15 16 19 19 18 17 14 12 10 8 5 4
3 5 5 5 9 6 4 4 5 5 4 4 6 7 8 10 8 8 10 12 13 13 12 13 15 16 17 17 17 17 16 17 18 20 21 19 17 15 13 11 9 7 6 5
4 4 3 5 9 8 7 6 5 3 2 2 3 6 8 9 10 10 10 11 13 13 13 13 15 16 17 18 19 19 19 20 21 23 21 20 18 17 15 13 11 9 8 7
4 5 4 1 6 9 8 6 3 2 2 3 4 6 7 8 8 10 10 11 13 12 12 12 13 15 17 17 20 21 21 21 22 23 22 21 19 17 15 13 11 10 10 9
6 6 4 8 4 9 7 5 4 3 4 6 7 8 9 9 9 9 9 8 10 12 13 13 13 14 12 14 19 22 22 20 23 23 22 20 19 16 16 15 13 12 11 11
6 11 5 5 9 9 8 6 5 6 7 7 7 8 9 10 9 9 9 9 10 12 14 14 14 13 12 14 19 21 21 24 24 23 21 19 18 18 18 17 16 14 14 13
11 10 7 7 8 7 6 6 6 6 7 8 9 10 11 11 11 11 12 13 14 14 13 15 15 12 13 14 18 21 23 22 23 23 23 23 22 22 21 20 19 18 17 14
9 6 7 7 7 6 6 6 7 9 11 12 13 15 16 17 16 14 13 13 14 15 14 15 14 13 14 15 18 21 25 26 26 25 25 25 24 24 22 21 21 20 18 16
4 3 4 5 6 5 6 8 10 11 12 13 14 16 18 18 17 16 16 15 16 17 17 16 15 15 16 18 19 22 24 26 28 28 27 27 27 26 25 24 23 22 20 19
2 2 2 2 3 5 6 7 9 11 12 13 15 16 17 17 17 18 16 16 18 20 18 17 16 16 18 19 21 23 26 29 30 31 30 28 29 29 28 27 26 24 22 22
3 2 1 2 2 3 3 5 6 8 10 12 13 14 14 14 16 18 18 19 18 19 20 18 16 18 20 20 22 24 27 30 33 33 33 32 32 32 31 29 28 26 25 24
5 6 5 5 4 5 6 7 8 9 10 11 12 12 13 13 13 14 16 16 13 15 18 20 21 19 22 23 22 26 28 30 33 36 37 37 37 36 34 32 29 29 27 26
3 3 2 5 8 8 9 9 11 11 11 11 11 12 12 12 12 11 12 15 16 17 18 19 20 21 22 24 25 25 28 31 33 34 37 39 40 39 38 36 37 34 29 27
1 3 4 5 7 8 9 10 11 12 11 11 12 12 13 13 14 14 12 10 13 15 17 18 18 19 20 23 26 26 27 29 32 35 37 38 38 38 38 39 40 39 36 29
3 4 6 7 9 9 10 10 11 11 11 12 13 14 14 14 10 10 14 14 14 14 14 15 15 18 18 22 24 26 27 29 29 30 31 32 33 34 34 34 35 37 39 38
6 7 8 9 10 11 11 12 12 12 11 11 12 12 13 15 16 15 15 15 15 14 14 13 14 14 16 19 22 24 25 25 26 26 27 28 29 29 30 30 30 31 35 38
10 10 10 11 11 12 13 14 13 13 13 13 12 13 12 13 13 14 15 15 15 15 15 14 14 13 14 15 17 19 20 20 21 22 23 24 24 25 26 26 26 27 30 32
13 12 10 11 13 14 15 15 14 13 14 16 16 14 15 16 16 16 16 16 16 15 15 15 14 14 14 14 14 15 16 16 17 18 19 20 21 22 22 23 24 24 26 28
Wind_Direction
221 153 133 183 182 189 204 215 197 225 221 256 223 206 189 180 184 185 190 196 203 206 209 215 220 224 230 240 253 262 267 265 262 265 264 255 250 247 243 239 237 237 236 237
343 51 145 245 208 200 216 221 249 261 276 241 218 196 185 190 190 195 200 207 213 215 217 222 226 229 233 239 246 250 256 258 262 261 256 250 244 239 235 231 224 218 215 213
255 183 141 288 218 199 206 200 207 210 233 309 206 183 197 195 198 203 210 217 220 222 224 227 231 235 240 243 244 247 252 252 257 264 257 246 238 231 218 210 206 197 186 171
145 76 269 239 181 199 204 209 214 254 238 249 255 223 212 207 206 212 220 223 227 229 228 228 230 232 235 240 245 246 246 250 259 261 251 239 226 210 202 194 181 170 160 152
148 197 288 285 197 148 171 258 209 215 224 292 245 169 201 213 224 240 235 235 236 235 233 232 232 233 234 240 244 242 242 249 258 258 243 226 210 195 184 173 164 154 144 138
144 154 236 258 288 187 146 292 271 197 206 180 177 157 250 203 215 225 231 236 236 233 229 228 230 231 237 242 240 236 241 246 256 249 231 212 194 182 173 164 159 152 147 140
188 239 287 248 256 154 107 243 316 211 214 182 180 197 193 198 223 234 232 233 229 224 229 232 231 234 237 237 235 236 239 243 243 233 217 196 182 175 167 162 162 155 152 144
129 227 277 198 133 168 231 81 79 93 189 189 205 203 208 214 216 217 219 221 222 223 223 228 234 236 233 231 228 235 239 236 234 225 207 188 178 170 170 169 168 167 161 158
171 213 240 221 239 284 185 125 91 105 132 187 203 215 225 240 244 247 241 230 224 225 231 239 239 236 232 234 233 232 232 231 223 209 193 181 176 180 178 174 178 183 184 193
74 288 261 257 228 213 166 150 152 139 131 106 76 48 321 278 275 257 244 237 236 238 246 246 237 231 230 231 230 231 232 223 212 197 183 179 182 183 186 189 193 199 209 230
265 281 289 240 210 208 198 174 162 152 150 164 198 223 254 281 280 270 248 237 239 248 255 247 238 234 234 236 232 228 223 216 207 192 188 189 190 193 195 200 208 216 226 243
226 234 218 259 215 207 189 176 173 187 193 226 252 263 270 276 274 274 261 245 248 253 257 251 243 239 239 240 232 225 218 210 204 196 194 196 199 202 205 209 214 222 234 250
261 249 228 180 164 183 187 183 196 235 282 297 301 298 292 291 286 270 268 253 252 259 261 260 253 249 257 245 223 217 216 210 202 198 201 204 207 211 217 220 226 233 243 254
275 212 174 191 204 196 199 200 222 262 289 299 302 301 298 296 291 282 284 281 260 256 258 263 259 255 260 235 218 213 210 210 207 207 208 212 215 220 224 230 237 243 247 254
242 213 238 247 217 201 209 223 249 275 289 297 301 302 297 292 286 280 273 268 261 258 257 255 259 260 257 235 217 211 212 213 208 210 216 220 223 226 231 235 238 242 249 255
214 220 227 202 198 210 232 253 268 277 284 293 299 298 295 292 288 281 273 267 264 269 275 268 265 261 257 242 226 218 217 220 216 217 219 223 225 230 234 238 242 246 251 256
174 180 197 206 216 234 253 267 279 284 287 289 292 295 292 286 282 281 275 272 270 269 269 268 268 259 252 248 235 229 219 218 221 225 227 230 233 237 240 244 247 250 254 255
200 192 206 222 221 237 260 276 284 288 289 292 296 301 302 300 293 288 275 267 265 264 263 265 263 258 250 246 241 234 230 227 228 232 233 234 236 239 241 244 247 251 253 253
180 188 219 245 270 282 288 292 300 303 301 299 295 290 288 287 289 290 286 274 267 267 267 273 272 262 255 248 242 238 234 232 233 237 239 241 242 243 243 245 248 251 253 253
129 110 89 42 359 354 351 347 345 335 325 316 309 302 294 288 283 281 284 280 275 272 268 266 262 258 256 252 247 243 241 238 239 240 241 240 242 244 244 246 248 251 252 253
123 96 80 57 24 356 340 333 329 327 332 336 331 325 316 311 301 291 285 281 277 269 267 264 262 259 254 254 249 245 244 243 243 243 244 244 244 244 245 244 248 252 252 253
135 134 86 27 352 344 338 335 333 332 329 325 324 328 329 327 320 311 301 292 283 277 272 269 265 258 253 253 252 248 247 246 248 249 249 249 249 248 245 240 240 240 250 252
122 38 357 326 330 336 337 336 334 333 331 326 325 325 325 330 333 330 322 309 299 292 284 277 268 258 254 251 252 250 251 251 252 253 254 256 257 256 256 253 251 244 234 240
332 329 326 325 329 330 329 327 328 329 330 332 332 330 327 327 328 321 320 318 317 308 302 290 282 265 256 253 253 253 253 255 257 258 260 261 261 260 260 258 255 250 245 239
298 303 308 314 320 322 322 322 324 325 325 325 326 327 328 327 326 326 322 318 317 317 317 308 299 285 268 261 260 261 262 261 262 262 262 261 261 260 258 256 254 251 246 245
290 290 297 306 313 317 317 317 318 319 319 320 322 321 325 324 321 319 318 318 318 316 316 314 311 300 289 279 270 267 265 263 261 261 261 260 259 259 257 253 250 248 245 244
294 294 295 304 309 311 312 310 311 313 313 314 316 319 321 322 320 319 318 318 316 314 313 313 310 305 300 294 284 275 270 267 262 259 259 260 260 259 256 249 246 248 241 244